Regional Weather Roundup
Issued by NWS

Home | Current Version | Previous Version | Text Only | Print | Product List | Glossary On
Versions: 1 2 3 4 5 6 7 8 9 10 11 12 13 14 15 16 17 18 19 20 21 22 23 24 25 26 27
000
ASUS42 KTBW 042316
RWRFL
FLORIDA REGIONAL WEATHER ROUNDUP
NATIONAL WEATHER SERVICE TAMPA BAY RUSKIN FL
600 PM EST SUN DEC 04 2016

NOTE: "FAIR" INDICATES FEW OR NO CLOUDS BELOW 12,000 FEET WITH NO
SIGNIFICANT WEATHER AND/OR OBSTRUCTIONS TO VISIBILITY.

FLZ001>010-012>015-112-114-115-050000-
PANHANDLE FLORIDA

CITY           SKY/WX    TMP DP  RH WIND       PRES   REMARKS
PENSACOLA      CLOUDY    74  71  91 SW12      29.89R
PENSACOLA NAS  CLOUDY    73  70  90 SW8       29.88R
MILTON NAS     LGT RAIN  70  68  93 CALM      29.89
CRESTVIEW      HVY RAIN  68  66  93 W3G22     29.91R VSB 3/4
DUKE FIELD     HVY RAIN  68  66  94 W13       29.90R VSB 1/2
VALPARAISO     MOCLDY    73  70  90 S14       29.88R
MARY ESTHER    CLOUDY    73  70  88 S15       29.87R
TRI COUNTY     LGT RAIN  73  69  87 VRB5      29.92R
PANAMA CITY    CLOUDY    72  68  87 SE12      29.91S
TYNDALL AFB    PTCLDY    73  69  88 S15       29.92R
APALACHICOLA   CLOUDY    71  70  96 SE9       29.94S

STATION/POSITION SKY/WX   TEMP    WIND        PRES    WAVE   SWELL
                          AIR SEA DIR/SP/G            HT/PER HT/PER
                          (F)     (DEG/KT/KT) (MB)    (FT/S) (FT/S)
30.1N   87.6W              73 69  190/ 14/ 17 1011.3R   6/ 7   3/ 7
29.2N   88.2W              76 76  200/ 12/ 14 1011.8
28.8N   86.0W              76 76              1013.1R   6/ 8
PANAMA CITY BEAC           69 67  130/ 12/ 14 1013.0R
TOWER C                    73     180/ 16/ 17 1014.4R
28.5N   84.5W              75 75  170/ 16/ 19 1013.8R   5/ 7   2/12

$$
FLZ011-016>038-118-127-128-134-139-239-050000-
NORTH FLORIDA

CITY           SKY/WX    TMP DP  RH WIND       PRES   REMARKS
MARIANNA       CLOUDY    72  67  84 S10       29.91R
TALLAHASSEE    CLOUDY    71  65  81 SE6       29.96R
PERRY          CLOUDY    74  62  65 S8        29.97F
CROSS CITY     PTCLDY    72  63  73 S3        29.98R
LAKE CITY      CLOUDY    73  63  68 CALM      29.99R
GAINESVILLE    CLEAR     71  59  65 SE6       29.98F
WILLISTON      CLEAR     75  64  69 CALM      29.98S HAZE
PALATKA        CLOUDY    73  63  68 SE6       30.00S
MAYPORT NAS    CLEAR     70  63  78 S10       30.01S
JACKSONVILLE   MOCLDY    71  63  75 SE12      30.00R
JAX NAS        PTCLDY    71  62  73 SE9       30.01S
FERNANDINA BEA FAIR      72  64  78 SE6       30.01R
ST AUGUSTINE   CLEAR     70  64  81 SE13      30.02F
PALM COAST     CLEAR     70  63  78 E12       30.02

STATION/POSITION SKY/WX   TEMP    WIND        PRES    WAVE   SWELL
                          AIR SEA DIR/SP/G            HT/PER HT/PER
                          (F)     (DEG/KT/KT) (MB)    (FT/S) (FT/S)
SHELL POINT      NOT AVBL
KEATON BEACH               69     150/  7/  7 1014.6F
CEDAR KEY                  68      80/  1/  1 1015.5S
FERNANDINA                 70 67  130/  5/ 11 1016.1F
30.7N   81.3W                 66                N/A     3/ 5
MAYPORT                    70 67  150/  5/ 12 1016.2F
31.4N   80.9W              68 65  120/ 12/ 14 1016.3F   4/ 5   2/ 8
ST AUGUSTINE               70 68  150/ 16/ 17 1017.2S

$$
FLZ040-043>046-052-053-057-058-063-144-050000-
INTERIOR CENTRAL FLORIDA

CITY           SKY/WX    TMP DP  RH WIND       PRES   REMARKS
OCALA          PTCLDY    77  61  57 S7        30.00S
THE VILLAGES     N/A     75  66  73 MISG      29.90S
LEESBURG       CLEAR     74  62  66 SE5       30.01S
SANFORD        CLEAR     72  62  71 SE7       30.01S
ORLANDO EXEC   CLEAR     74  63  68 SE9       30.01S
ORLANDO INTL   PTCLDY    75  62  64 SE12      30.01S
KISSIMMEE      CLEAR     76  64  66 SE8       30.02R
WINTER HAVEN   CLEAR     78  61  55 S6        30.02R
LAKELAND       CLEAR     75  64  69 SE5       30.01R
BARTOW         FAIR      75  63  64 SE6       30.01R
OKEECHOBEE     PTCLDY    72  64  78 E6        30.03S

$$
FLZ041-047-054-059-064-141-147-050000-
EAST CENTRAL FLORIDA

CITY           SKY/WX    TMP DP  RH WIND       PRES   REMARKS
ORMOND BEACH   CLEAR     72  64  78 SE9       30.03R
DAYTONA BEACH  PTCLDY    72  64  76 E3        30.03R
DELAND         CLEAR     72  63  73 E7        30.02R
NEW SMYRNA BEA CLEAR     73  64  73 SE13      30.03R
JFK SPACE CTR  CLEAR     73  64  74 S8        30.01S
TITUSVILLE     CLEAR     72  66  83 SE12      30.02F
CAPE CANAVERAL CLEAR     73  66  77 SE13      30.01S
PATRICK AFB    CLEAR     73  67  81 SE12      30.02S
MELBOURNE      CLEAR     73  66  78 SE12      30.03R
VERO BEACH     CLEAR     74  66  76 SE9       30.04S
FT PIERCE      PTCLDY    74  67  78 SE12      30.04S

STATION/POSITION SKY/WX   TEMP    WIND        PRES    WAVE   SWELL
                          AIR SEA DIR/SP/G            HT/PER HT/PER
                          (F)     (DEG/KT/KT) (MB)    (FT/S) (FT/S)
TRIDENT PIER               72 73  130/  8/ 11 1016.5S
28.4N   80.5W                 71                N/A     3/ 5

$$
FLZ050-056-061-142-242-148-248-149-249-151-251-155-255-
160-260-050000-
WEST CENTRAL FLORIDA

CITY           SKY/WX    TMP DP  RH WIND       PRES   REMARKS
CRYSTAL RIVER  FAIR      72  63  73 CALM      29.99S
INVERNESS      FAIR      72  64  78 CALM      30.00R
BROOKSVILLE    CLEAR     77  61  57 SE7       29.99
CLEARWATER AIR FAIR      73  64  73 S5        29.98S
ST PETE CLEARW CLEAR     76  65  68 SW7       29.98S
TAMPA INTL     PTCLDY    77  64  64 S5        29.99R
TAMPA EXEC     CLEAR     81  61  50 SE3       30.00R
PLANT CITY     CLEAR     77  64  65 SE3       30.02R
MACDILL AFB    CLEAR     73  66  78 SW7       29.99R
PETER O KNIGHT CLEAR     79  68  69 SE6       29.99S
ST PETERSBURG  CLEAR     76  66  71 SW5       29.97S
SARASOTA       CLEAR     77  65  66 S7        29.98R
VENICE         FAIR      77  68  73 S5        29.99S

STATION/POSITION SKY/WX   TEMP    WIND        PRES    WAVE   SWELL
                          AIR SEA DIR/SP/G            HT/PER HT/PER
                          (F)     (DEG/KT/KT) (MB)    (FT/S) (FT/S)
CLEARWATER BEACH           72 69  180/  5/  6 1015.3S
MIDDLE TAMPA BAY           72     220/  6/  7 1015.5F
VENICE                     75 71  150/  7/  8 1015.2R

$$
FLZ066-069-070-075>078-162-262-165-265-050000-
SOUTHWEST FLORIDA AND KEYS

CITY           SKY/WX    TMP DP  RH WIND       PRES   REMARKS
PUNTA GORDA    CLEAR     76  66  71 SE6       30.01R
FT MYERS       PTCLDY    79  67  66 SE7       29.99R
SOUTHWEST INTL CLEAR     78  67  68 SE6       29.99S
NAPLES         CLEAR     80  67  64 SE10      29.99S
MARCO ISLAND   CLEAR     79  68  69 SE6       30.00S
MARATHON       MOCLDY    81  73  76 E8        29.99S
KEY WEST NAS   MOCLDY    77  73  87 SE12      29.99R
KEY WEST INTL  MOCLDY    79  75  87 SE13      29.99R

STATION/POSITION SKY/WX   TEMP    WIND        PRES    WAVE   SWELL
                          AIR SEA DIR/SP/G            HT/PER HT/PER
                          (F)     (DEG/KT/KT) (MB)    (FT/S) (FT/S)
NAPLES                        73              1015.5S
26.0N   85.6W              77 77  120/ 16/ 19 1013.4F   6/ 7
DRY TORTUGAS               78     100/ 14/ 15 1015.0R
SAND KEY                   79     130/ 17/ 19 1015.8R
LONG KEY                   78 78  120/ 16/ 19 1016.3R
MOLASSES REEF              78 80  110/ 15/ 16 1016.8R

$$
FLZ067-068-071>074-168-172>174-050000-
SOUTHEAST FLORIDA

CITY           SKY/WX    TMP DP  RH WIND       PRES   REMARKS
W PALM BEACH   MOCLDY    77  68  73 SE12      30.04S
BOCA RATON     PTCLDY    77  70  78 SE12      30.04R
FT LAUDER-EXEC PTCLDY    76  66  71 E10       30.03S
FT LAUDERDALE  MOCLDY    78  67  68 SE10      30.03R
POMPANO BEACH  PTCLDY    77  69  76 SE13      30.03S
PEMBROKE PINES MOCLDY    77  67  71 E9        30.04S
OPA LOCKA      MOCLDY    77  68  73 E9        30.04R
MIAMI          MOCLDY    77  69  76 E10       30.03S
WEST KENDALL   CLOUDY    77  69  76 E12       30.03R
HOMESTEAD      MOCLDY    77  72  86 E7        30.01F

STATION/POSITION SKY/WX   TEMP    WIND        PRES    WAVE   SWELL
                          AIR SEA DIR/SP/G            HT/PER HT/PER
                          (F)     (DEG/KT/KT) (MB)    (FT/S) (FT/S)
PORT EVERGLADES            78     120/  5/ 12 1017.0
VIRGINIA KEY               77 82  110/ 11/ 13 1017.2S
LAKE WORTH                 77 78  110/ 13/ 15 1016.9R
FOWEY ROCKS                77 78  100/ 17/ 18 1017.3R

$$





USA.gov is the U.S. government's official web portal to all federal, state and local government web resources and services.